| time (UTC) | temp C | wind direction | speed KPH | gust KPH | rain 1hr cm | rain 24hr cm | rain mn cm | humidity % | barometer mb |
| 20260505152002 | 20 | 305 | 14.5 | 24.1 | 0.00 | 0.00 | 0.00 | 69 | 1006.0 |
| 20260505151002 | 21 | 104 | 6.4 | 17.7 | 0.00 | 0.00 | 0.00 | 63 | 1005.0 |
| 20260505125002 | 27 | 90 | 3.2 | 6.4 | 0.00 | 0.00 | 0.00 | 40 | 1006.0 |
| 20260505124002 | 27 | 333 | 3.2 | 6.4 | 0.00 | 0.00 | 0.00 | 39 | 1006.0 |
| 20260505123002 | 28 | 0 | 3.2 | 12.9 | 0.00 | 0.00 | 0.00 | 39 | 1006.0 |
| 20260505122003 | 28 | 289 | 4.8 | 9.7 | 0.00 | 0.00 | 0.00 | 39 | 1006.0 |
| 20260505121002 | 27 | 293 | 3.2 | 8.0 | 0.00 | 0.00 | 0.00 | 39 | 1006.0 |
| 20260505120005 | 27 | 90 | 3.2 | 6.4 | 0.00 | 0.00 | 0.00 | 40 | 1006.0 |
| 20260505115003 | 27 | 90 | 3.2 | 6.4 | 0.00 | 0.00 | 0.00 | 41 | 1006.0 |
| 20260505114002 | 27 | 121 | 4.8 | 9.7 | 0.00 | 0.00 | 0.00 | 41 | 1006.0 |
| 20260505113003 | 27 | 122 | 3.2 | 6.4 | 0.00 | 0.00 | 0.00 | 41 | 1006.0 |
| 20260505112002 | 27 | 123 | 3.2 | 6.4 | 0.00 | 0.00 | 0.00 | 42 | 1007.0 |
| 20260505111003 | 27 | 270 | 3.2 | 6.4 | 0.00 | 0.00 | 0.00 | 42 | 1007.0 |
| 20260505102002 | 25 | 8 | 1.6 | 6.4 | 0.00 | 0.00 | 0.00 | 45 | 1007.0 |
| 20260505101002 | 25 | 110 | 3.2 | 6.4 | 0.00 | 0.00 | 0.00 | 45 | 1007.0 |
| 20260505100002 | 25 | 114 | 3.2 | 8.0 | 0.00 | 0.00 | 0.00 | 46 | 1007.0 |
| 20260505095002 | 25 | 117 | 3.2 | 4.8 | 0.00 | 0.00 | 0.00 | 46 | 1007.0 |
| 20260505094003 | 25 | 117 | 4.8 | 8.0 | 0.00 | 0.00 | 0.00 | 46 | 1008.0 |
| 20260505093002 | 25 | 100 | 3.2 | 4.8 | 0.00 | 0.00 | 0.00 | 47 | 1008.0 |
| 20260505092002 | 25 | 119 | 3.2 | 6.4 | 0.00 | 0.00 | 0.00 | 48 | 1008.0 |
| 20260505091002 | 25 | 110 | 4.8 | 6.4 | 0.00 | 0.00 | 0.00 | 48 | 1008.0 |
| 20260505090002 | 25 | 122 | 4.8 | 8.0 | 0.00 | 0.00 | 0.00 | 48 | 1008.0 |
| 20260505085002 | 25 | 121 | 3.2 | 8.0 | 0.00 | 0.00 | 0.00 | 47 | 1008.0 |
| 20260505084002 | 25 | 118 | 3.2 | 8.0 | 0.00 | 0.00 | 0.00 | 47 | 1008.0 |
| 20260505083002 | 25 | 135 | 3.2 | 6.4 | 0.00 | 0.00 | 0.00 | 47 | 1008.0 |
| 20260505082002 | 23 | 133 | 3.2 | 6.4 | 0.00 | 0.00 | 0.00 | 47 | 1008.0 |
| 20260505081003 | 22 | 151 | 1.6 | 4.8 | 0.00 | 0.00 | 0.00 | 46 | 1008.0 |
| 20260505080003 | 20 | 113 | 3.2 | 6.4 | 0.00 | 0.00 | 0.00 | 46 | 1008.0 |
| 20260505075005 | 19 | 135 | 3.2 | 8.0 | 0.00 | 0.00 | 0.00 | 45 | 1008.0 |
| 20260505074004 | 18 | 135 | 3.2 | 6.4 | 0.00 | 0.00 | 0.00 | 44 | 1008.0 |
| 20260505073005 | 18 | 126 | 4.8 | 12.9 | 0.00 | 0.00 | 0.00 | 44 | 1008.0 |
| 20260505072003 | 18 | 120 | 4.8 | 8.0 | 0.00 | 0.00 | 0.00 | 44 | 1009.0 |
| 20260505071008 | 18 | 120 | 3.2 | 8.0 | 0.00 | 0.00 | 0.00 | 44 | 1009.0 |
| 20260505070005 | 17 | 121 | 4.8 | 9.7 | 0.00 | 0.00 | 0.00 | 42 | 1009.0 |
| 20260505065004 | 17 | 116 | 4.8 | 8.0 | 0.00 | 0.00 | 0.00 | 42 | 1009.0 |
| 20260505064003 | 17 | 111 | 4.8 | 8.0 | 0.00 | 0.00 | 0.00 | 42 | 1009.0 |
| 20260505063008 | 17 | 115 | 4.8 | 9.7 | 0.00 | 0.00 | 0.00 | 43 | 1009.0 |
| 20260505062003 | 16 | 123 | 4.8 | 8.0 | 0.00 | 0.00 | 0.00 | 45 | 1009.0 |
| 20260505061004 | 16 | 128 | 4.8 | 9.7 | 0.00 | 0.00 | 0.00 | 46 | 1009.0 |
| 20260505060009 | 16 | 116 | 4.8 | 8.0 | 0.00 | 0.00 | 0.00 | 49 | 1009.0 |
| 20260505055004 | 15 | 120 | 4.8 | 8.0 | 0.00 | 0.00 | 0.00 | 52 | 1009.0 |
| 20260505054003 | 15 | 114 | 4.8 | 8.0 | 0.00 | 0.00 | 0.00 | 56 | 1009.0 |
| 20260505053004 | 15 | 119 | 6.4 | 9.7 | 0.00 | 0.00 | 0.00 | 62 | 1009.0 |
| 20260505052005 | 14 | 120 | 4.8 | 8.0 | 0.00 | 0.00 | 0.00 | 69 | 1009.0 |
| 20260505051004 | 14 | 124 | 4.8 | 8.0 | 0.00 | 0.00 | 0.00 | 72 | 1009.0 |
| 20260505041004 | 12 | 116 | 3.2 | 6.4 | 0.00 | 0.00 | 0.00 | 79 | 1009.0 |
| 20260505040007 | 12 | 108 | 3.2 | 4.8 | 0.00 | 0.00 | 0.00 | 79 | 1009.0 |
| 20260505035004 | 11 | 113 | 3.2 | 6.4 | 0.00 | 0.00 | 0.00 | 79 | 1009.0 |
| 20260505034004 | 11 | 107 | 3.2 | 6.4 | 0.00 | 0.00 | 0.00 | 79 | 1009.0 |
| 20260505033005 | 11 | 113 | 4.8 | 6.4 | 0.00 | 0.00 | 0.00 | 79 | 1009.0 |
| 20260505032005 | 11 | 110 | 3.2 | 6.4 | 0.00 | 0.00 | 0.00 | 79 | 1009.0 |
| 20260505031007 | 11 | 102 | 3.2 | 4.8 | 0.00 | 0.00 | 0.00 | 78 | 1009.0 |
| 20260505030007 | 11 | 90 | 1.6 | 3.2 | 0.00 | 0.00 | 0.00 | 78 | 1009.0 |
| 20260505025003 | 12 | 105 | 3.2 | 6.4 | 0.00 | 0.00 | 0.00 | 78 | 1009.0 |
| 20260505024002 | 12 | 90 | 3.2 | 6.4 | 0.00 | 0.00 | 0.00 | 78 | 1009.0 |
| 20260505023002 | 12 | 99 | 4.8 | 6.4 | 0.00 | 0.00 | 0.00 | 77 | 1009.0 |
| 20260505022002 | 13 | 104 | 3.2 | 4.8 | 0.00 | 0.00 | 0.00 | 77 | 1009.0 |
| 20260505021002 | 13 | 105 | 3.2 | 4.8 | 0.00 | 0.00 | 0.00 | 76 | 1009.0 |
| 20260505020003 | 13 | 114 | 3.2 | 4.8 | 0.00 | 0.00 | 0.00 | 76 | 1009.0 |
| 20260505015003 | 13 | 113 | 4.8 | 6.4 | 0.00 | 0.00 | 0.00 | 76 | 1009.0 |
| 20260505014002 | 13 | 111 | 4.8 | 6.4 | 0.00 | 0.00 | 0.00 | 75 | 1009.0 |
| 20260505013002 | 13 | 113 | 4.8 | 6.4 | 0.00 | 0.00 | 0.00 | 75 | 1009.0 |
| 20260505012002 | 13 | 115 | 4.8 | 6.4 | 0.00 | 0.00 | 0.00 | 75 | 1009.0 |
| 20260505011002 | 13 | 110 | 3.2 | 6.4 | 0.00 | 0.00 | 0.00 | 75 | 1009.0 |
| 20260505010003 | 13 | 119 | 4.8 | 8.0 | 0.00 | 0.00 | 0.00 | 74 | 1009.0 |
| 20260505005002 | 13 | 112 | 4.8 | 6.4 | 0.00 | 0.00 | 0.00 | 74 | 1009.0 |
| 20260505004002 | 13 | 107 | 3.2 | 4.8 | 0.00 | 0.00 | 0.00 | 73 | 1009.0 |
| 20260505003002 | 14 | 115 | 3.2 | 4.8 | 0.00 | 0.00 | 0.00 | 73 | 1009.0 |
| 20260505002002 | 14 | 109 | 3.2 | 6.4 | 0.00 | 0.00 | 0.00 | 72 | 1009.0 |
| 20260505001002 | 14 | 112 | 3.2 | 6.4 | 0.00 | 0.00 | 0.00 | 72 | 1009.0 |
| 20260505000003 | 14 | 112 | 4.8 | 6.4 | 0.00 | 0.00 | 0.00 | 71 | 1009.0 |
| 20260504235002 | 14 | 113 | 4.8 | 6.4 | 0.00 | 0.00 | 0.00 | 71 | 1009.0 |
| 20260504234002 | 15 | 119 | 3.2 | 6.4 | 0.00 | 0.00 | 0.00 | 70 | 1009.0 |
| 20260504233002 | 15 | 113 | 4.8 | 9.7 | 0.00 | 0.00 | 0.00 | 70 | 1009.0 |
| 20260504232003 | 15 | 111 | 4.8 | 8.0 | 0.00 | 0.00 | 0.00 | 69 | 1009.0 |
| 20260504231002 | 15 | 118 | 4.8 | 9.7 | 0.00 | 0.00 | 0.00 | 69 | 1009.0 |
| 20260504230005 | 15 | 116 | 4.8 | 9.7 | 0.00 | 0.00 | 0.00 | 69 | 1009.0 |
| 20260504225002 | 16 | 113 | 4.8 | 9.7 | 0.00 | 0.00 | 0.00 | 68 | 1009.0 |
| 20260504224003 | 16 | 110 | 4.8 | 9.7 | 0.00 | 0.00 | 0.00 | 68 | 1009.0 |
| 20260504223002 | 16 | 111 | 6.4 | 11.3 | 0.00 | 0.00 | 0.00 | 66 | 1009.0 |
| 20260504222002 | 16 | 113 | 6.4 | 12.9 | 0.00 | 0.00 | 0.00 | 65 | 1009.0 |
| 20260504221003 | 16 | 112 | 6.4 | 9.7 | 0.00 | 0.00 | 0.00 | 64 | 1009.0 |
| 20260504220003 | 17 | 121 | 6.4 | 11.3 | 0.00 | 0.00 | 0.00 | 62 | 1009.0 |
| 20260504215002 | 17 | 112 | 4.8 | 9.7 | 0.00 | 0.00 | 0.00 | 59 | 1009.0 |
| 20260504214002 | 17 | 119 | 6.4 | 12.9 | 0.00 | 0.00 | 0.00 | 58 | 1009.0 |
| 20260504213002 | 17 | 113 | 6.4 | 12.9 | 0.00 | 0.00 | 0.00 | 55 | 1009.0 |
| 20260504212002 | 17 | 112 | 4.8 | 8.0 | 0.00 | 0.00 | 0.00 | 53 | 1009.0 |
| 20260504211002 | 16 | 75 | 3.2 | 9.7 | 0.00 | 0.00 | 0.00 | 54 | 1008.0 |
| 20260504210003 | 17 | 121 | 3.2 | 4.8 | 0.00 | 0.00 | 0.00 | 54 | 1008.0 |
| 20260504205002 | 17 | 120 | 3.2 | 4.8 | 0.00 | 0.00 | 0.00 | 53 | 1008.0 |
| 20260504204002 | 17 | 115 | 3.2 | 4.8 | 0.00 | 0.00 | 0.00 | 52 | 1008.0 |
| 20260504203002 | 17 | 119 | 3.2 | 4.8 | 0.00 | 0.00 | 0.00 | 52 | 1008.0 |
| 20260504202002 | 18 | 124 | 3.2 | 3.2 | 0.00 | 0.00 | 0.00 | 51 | 1008.0 |
| 20260504201002 | 18 | 109 | 3.2 | 3.2 | 0.00 | 0.00 | 0.00 | 49 | 1008.0 |
| 20260504200002 | 18 | 109 | 3.2 | 4.8 | 0.00 | 0.00 | 0.00 | 48 | 1008.0 |
| 20260504195003 | 18 | 114 | 3.2 | 4.8 | 0.00 | 0.00 | 0.00 | 47 | 1008.0 |
| 20260504194002 | 19 | 111 | 3.2 | 4.8 | 0.00 | 0.00 | 0.00 | 46 | 1008.0 |
| 20260504193002 | 20 | 111 | 3.2 | 4.8 | 0.00 | 0.00 | 0.00 | 45 | 1008.0 |
| 20260504192003 | 20 | 119 | 3.2 | 4.8 | 0.00 | 0.00 | 0.00 | 44 | 1008.0 |
| 20260504191002 | 20 | 122 | 3.2 | 3.2 | 0.00 | 0.00 | 0.00 | 43 | 1008.0 |
| 20260504190004 | 21 | 139 | 1.6 | 4.8 | 0.00 | 0.00 | 0.00 | 42 | 1008.0 |
| 20260504185002 | 21 | 130 | 1.6 | 3.2 | 0.00 | 0.00 | 0.00 | 41 | 1008.0 |
| 20260504184002 | 22 | 108 | 3.2 | 8.0 | 0.00 | 0.00 | 0.00 | 39 | 1008.0 |
| 20260504183002 | 22 | 102 | 3.2 | 3.2 | 0.00 | 0.00 | 0.00 | 38 | 1008.0 |
| 20260504182002 | 22 | 117 | 1.6 | 3.2 | 0.00 | 0.00 | 0.00 | 38 | 1008.0 |
| 20260504181002 | 23 | 122 | 1.6 | 3.2 | 0.00 | 0.00 | 0.00 | 37 | 1008.0 |
| 20260504180002 | 23 | 90 | 1.6 | 3.2 | 0.00 | 0.00 | 0.00 | 35 | 1008.0 |
| 20260504175002 | 24 | 45 | 1.6 | 4.8 | 0.00 | 0.00 | 0.00 | 35 | 1008.0 |
| 20260504174003 | 25 | 18 | 1.6 | 4.8 | 0.00 | 0.00 | 0.00 | 34 | 1008.0 |
| 20260504173002 | 25 | 90 | 1.6 | 4.8 | 0.00 | 0.00 | 0.00 | 34 | 1008.0 |
| 20260504172002 | 25 | 30 | 1.6 | 6.4 | 0.00 | 0.00 | 0.00 | 33 | 1008.0 |
| 20260504171003 | 25 | 296 | 3.2 | 6.4 | 0.00 | 0.00 | 0.00 | 33 | 1008.0 |